Volver al catálogo

STARLINK-34542

ActivoComunicacionesVLEO
NORAD 65890·PAYLOAD·🇺🇸 United States

Lanzado Oct 7, 2025 desde Cape Canaveral Space Force Station

Loading…

Próximos Pases (próximas 24 horas)

TLE

ActualizadoSource: CelesTrak SupGP

Época: Sep 14, 2026, 23:07 UTC

1 65890C 25224J   26257.96368056 -.00019703  00000+0 -58186-3 0  2577
2 65890  53.1571 211.4796 0001307  93.6076 246.8265 15.34414431    18

Sigue STARLINK-34542 en tiempo real con AllMySat

Download on the App Store